Breckenridge, TX

8:42 AM CST on February 23, 2017 (GMT -0600)
Stephens County

Weather History for KBKD - July, 2013

Change the Weather History Date:

Friday, July 26, 2013

  Actual Average (KMWL) Record (KMWL)
Temperature  
Mean Temperature 88 °F -  
Max Temperature 97 °F 95 °F 107 °F (2011)
Min Temperature 79 °F 72 °F 64 °F (2004)
Cooling Degree Days 23    
Growing Degree Days 38 (Base 50)    
Moisture  
Dew Point 66 °F    
Average Humidity 52    
Maximum Humidity 65    
Minimum Humidity 34    
Precipitation  
Precipitation 0.00 in - - ()
Sea Level Pressure  
Sea Level Pressure 29.98 in    
Wind  
Wind Speed 10 mph (WSW)    
Max Wind Speed 18 mph    
Max Gust Speed 30 mph    
Visibility 10 miles    
Events Rain    
Averages and records for this station are not official NWS values.
T = Trace of Precipitation, MM = Missing Value Source: NWS Daily Summary

Daily Weather History Graph

Daily Weather History Graph

Search for Another Location

Airport or City:

Trip Planner

Search our weather history database for the weather conditions in past years. The results will help you decide how hot, cold, wet, or windy it might be!

Date:

Astronomy

Jul. 26, 2013 Rise Set
Actual Time 6:45 AM CDT 8:38 PM CDT
Civil Twilight 6:18 AM CDT 9:05 PM CDT
Nautical Twilight 5:45 AM CDT 9:38 PM CDT
Astronomical Twilight 5:10 AM CDT 10:13 PM CDT
Moon 11:13 PM CDT (7/26) 11:04 AM CDT (7/26)
Length of Visible Light 14h 46m
Length of Day
13h 52m
Waning Gibbous, 80% of the Moon is Illuminated
Jul 26
Waning Gibbous
Jul 29
Last Quarter
Aug 6
New
Aug 14
First Quarter
Aug 20
Full

Hourly Weather History & Observations

Time (CDT) Temp. Heat Index Dew Point Humidity Pressure Visibility Wind Dir Wind Speed Gust Speed Precip Events Conditions
12:15 AM 85.1 °F 88.5 °F 68.5 °F 57% 30.01 in 10.0 mi SSE 8.1 mph - N/A   Clear
12:35 AM 84.6 °F 87.9 °F 68.4 °F 58% 30.00 in 10.0 mi SSE 9.2 mph - N/A   Clear
12:55 AM 84.2 °F 87.6 °F 68.4 °F 59% 29.99 in 10.0 mi SSE 9.2 mph - N/A   Clear
1:15 AM 84.4 °F 87.6 °F 68.2 °F 58% 29.99 in 10.0 mi SSE 10.4 mph - N/A   Clear
1:35 AM 84.6 °F 87.4 °F 67.5 °F 56% 29.99 in 10.0 mi SSE 9.2 mph - N/A   Clear
1:55 AM 84.7 °F 87.1 °F 66.4 °F 54% 29.98 in 10.0 mi SSE 10.4 mph - N/A   Clear
2:15 AM 85.1 °F 86.9 °F 64.9 °F 51% 29.97 in 10.0 mi South 11.5 mph - N/A   Clear
2:35 AM 85.1 °F 86.6 °F 64.4 °F 50% 29.96 in 10.0 mi South 11.5 mph - N/A   Clear
2:55 AM 85.1 °F 86.4 °F 63.9 °F 49% 29.96 in 10.0 mi South 8.1 mph 16.1 mph N/A   Clear
3:15 AM 84.4 °F 85.6 °F 63.9 °F 50% 29.96 in 10.0 mi South 8.1 mph - N/A   Clear
3:35 AM 84.2 °F 85.4 °F 63.5 °F 50% 29.95 in 10.0 mi South 11.5 mph 17.3 mph N/A   Clear
3:55 AM 84.2 °F 85.4 °F 63.5 °F 50% 29.95 in 10.0 mi South 11.5 mph - N/A   Scattered Clouds
4:15 AM 83.7 °F 84.9 °F 63.9 °F 51% 29.95 in 10.0 mi South 11.5 mph 16.1 mph N/A   Mostly Cloudy
4:35 AM 83.7 °F 84.9 °F 64.0 °F 51% 29.95 in 10.0 mi SSW 12.7 mph 17.3 mph N/A   Scattered Clouds
4:55 AM 83.5 °F 84.9 °F 64.4 °F 52% 29.96 in 10.0 mi South 9.2 mph 16.1 mph N/A   Mostly Cloudy
5:15 AM 83.3 °F 84.8 °F 64.4 °F 53% 29.96 in 10.0 mi SSW 9.2 mph - N/A   Overcast
5:35 AM 83.3 °F 84.8 °F 64.4 °F 53% 29.96 in 10.0 mi SSW 9.2 mph - N/A   Mostly Cloudy
5:55 AM 82.8 °F 84.3 °F 64.6 °F 54% 29.96 in 10.0 mi SSW 10.4 mph - N/A   Mostly Cloudy
6:15 AM 82.6 °F 84.3 °F 65.1 °F 55% 29.96 in 10.0 mi SSW 8.1 mph - N/A   Mostly Cloudy
6:35 AM 81.7 °F 84.0 °F 66.7 °F 60% 29.96 in 10.0 mi SSW 8.1 mph - N/A Rain Rain
6:55 AM 82.4 °F 84.6 °F 66.4 °F 58% 29.97 in 10.0 mi SSW 10.4 mph - N/A   Scattered Clouds
7:15 AM 82.9 °F 85.2 °F 66.2 °F 57% 29.98 in 10.0 mi SW 17.3 mph 23.0 mph N/A   Mostly Cloudy
7:35 AM 80.6 °F 83.2 °F 68.0 °F 65% 29.97 in 10.0 mi SW 12.7 mph - N/A   Mostly Cloudy
7:55 AM 80.8 °F 83.3 °F 67.6 °F 64% 29.96 in 10.0 mi SSW 13.8 mph 20.7 mph N/A   Mostly Cloudy
8:15 AM 81.5 °F 84.2 °F 67.6 °F 63% 29.98 in 10.0 mi SSW 12.7 mph 19.6 mph N/A   Overcast
8:35 AM 81.3 °F 84.1 °F 68.0 °F 64% 30.02 in 10.0 mi NW 5.8 mph - N/A   Overcast
8:55 AM 81.9 °F 84.8 °F 68.4 °F 63% 30.02 in 10.0 mi Calm Calm - N/A   Mostly Cloudy
9:15 AM 81.9 °F 85.2 °F 69.3 °F 65% 30.04 in 10.0 mi NNW 6.9 mph - N/A   Mostly Cloudy
9:35 AM 82.0 °F 85.1 °F 68.5 °F 63% 30.04 in 10.0 mi Calm Calm - N/A   Overcast
9:55 AM 82.4 °F 85.6 °F 68.5 °F 63% 30.03 in 10.0 mi SSE 3.5 mph - N/A   Overcast
10:15 AM 83.3 °F 86.9 °F 68.9 °F 62% 30.03 in 10.0 mi SSE 5.8 mph - N/A   Mostly Cloudy
10:35 AM 84.2 °F 87.9 °F 68.9 °F 60% 30.02 in 10.0 mi South 8.1 mph - N/A   Scattered Clouds
10:55 AM 86.7 °F 90.6 °F 68.9 °F 55% 30.01 in 10.0 mi South 11.5 mph - N/A   Clear
11:15 AM 88.0 °F 92.5 °F 69.4 °F 54% 30.00 in 10.0 mi SSW 12.7 mph - N/A   Clear
11:35 AM 88.2 °F 92.5 °F 68.9 °F 53% 30.00 in 10.0 mi SW 11.5 mph - N/A   Clear
11:55 AM 90.1 °F 94.4 °F 68.5 °F 49% 29.99 in 10.0 mi WSW 15.0 mph 19.6 mph N/A   Clear
12:15 PM 91.8 °F 96.5 °F 69.1 °F 47% 29.99 in 10.0 mi WSW 13.8 mph - N/A   Clear
12:35 PM 91.8 °F 95.5 °F 67.8 °F 45% 29.98 in 10.0 mi SW 10.4 mph 20.7 mph N/A   Clear
12:55 PM 93.0 °F 96.9 °F 67.6 °F 43% 29.98 in 10.0 mi WSW 13.8 mph 19.6 mph N/A   Clear
1:15 PM 92.7 °F 96.2 °F 67.3 °F 43% 29.97 in 10.0 mi WSW 13.8 mph 19.6 mph N/A   Clear
1:35 PM 95.0 °F 97.4 °F 64.8 °F 37% 29.97 in 10.0 mi West 9.2 mph 21.9 mph N/A   Clear
1:55 PM 96.1 °F 99.3 °F 66.0 °F 37% 29.96 in 10.0 mi West 12.7 mph 24.2 mph N/A   Scattered Clouds
2:15 PM 96.3 °F 98.1 °F 63.7 °F 34% 29.96 in 10.0 mi WNW 15.0 mph 23.0 mph N/A   Scattered Clouds
2:35 PM 96.1 °F 99.3 °F 66.0 °F 37% 29.96 in 10.0 mi NW 11.5 mph 17.3 mph N/A   Clear
2:55 PM 93.0 °F 99.5 °F 70.9 °F 48% 29.96 in 10.0 mi North 17.3 mph 29.9 mph N/A   Clear
3:15 PM 92.7 °F 98.8 °F 70.3 °F 48% 29.97 in 10.0 mi NW 16.1 mph 25.3 mph N/A   Clear
3:35 PM 92.3 °F 97.0 °F 68.9 °F 46% 29.96 in 10.0 mi North 13.8 mph 24.2 mph N/A   Clear
3:55 PM 91.8 °F 95.1 °F 67.3 °F 44% 29.96 in 10.0 mi North 17.3 mph 24.2 mph N/A   Clear
4:15 PM 92.3 °F 95.6 °F 66.9 °F 43% 29.96 in 10.0 mi NNW 11.5 mph 20.7 mph N/A   Clear
4:35 PM 91.9 °F 94.5 °F 66.0 °F 42% 29.95 in 10.0 mi NNW 18.4 mph 24.2 mph N/A   Clear
4:55 PM 92.3 °F 95.1 °F 66.0 °F 42% 29.95 in 10.0 mi North 15.0 mph 26.5 mph N/A   Clear
5:15 PM 92.1 °F 94.8 °F 66.2 °F 42% 29.95 in 10.0 mi NNW 9.2 mph 21.9 mph N/A   Clear
5:35 PM 92.5 °F 94.1 °F 64.4 °F 39% 29.95 in 10.0 mi North 12.7 mph 17.3 mph N/A   Clear
5:55 PM 92.3 °F 94.7 °F 65.5 °F 41% 29.95 in 10.0 mi North 17.3 mph 21.9 mph N/A   Clear
6:15 PM 90.3 °F 93.0 °F 66.4 °F 45% 29.95 in 10.0 mi North 18.4 mph 25.3 mph N/A   Scattered Clouds
6:35 PM 89.8 °F 92.1 °F 66.0 °F 45% 29.95 in 10.0 mi North 15.0 mph 21.9 mph N/A   Clear
6:55 PM 89.6 °F 91.8 °F 65.5 °F 45% 29.96 in 10.0 mi North 17.3 mph 24.2 mph N/A   Clear
7:15 PM 88.3 °F 89.9 °F 64.4 °F 45% 29.97 in 10.0 mi North 16.1 mph 25.3 mph N/A   Scattered Clouds
7:35 PM 87.4 °F 89.1 °F 64.9 °F 47% 29.97 in 10.0 mi North 10.4 mph 20.7 mph N/A   Scattered Clouds
7:55 PM 86.9 °F 88.6 °F 64.9 °F 48% 29.98 in 10.0 mi NNE 13.8 mph 21.9 mph N/A   Clear
8:15 PM 86.0 °F 87.3 °F 64.4 °F 48% 29.98 in 10.0 mi NNE 12.7 mph 18.4 mph N/A   Clear
8:35 PM 85.1 °F 86.6 °F 64.8 °F 50% 29.98 in 10.0 mi NNE 5.8 mph - N/A   Clear
8:55 PM 84.4 °F 85.9 °F 64.2 °F 51% 29.99 in 10.0 mi NNE 10.4 mph 17.3 mph N/A   Clear
9:15 PM 83.8 °F 85.3 °F 64.4 °F 52% 29.99 in 10.0 mi North 9.2 mph - N/A   Clear
9:35 PM 83.3 °F 84.8 °F 64.4 °F 53% 30.00 in 10.0 mi North 6.9 mph - N/A   Clear
9:55 PM 82.4 °F 84.1 °F 64.6 °F 55% 30.01 in 10.0 mi North 5.8 mph - N/A   Clear
10:15 PM 81.7 °F 83.5 °F 64.9 °F 57% 30.02 in 10.0 mi NNE 4.6 mph - N/A   Clear
10:35 PM 81.0 °F 82.9 °F 65.3 °F 59% 30.03 in 10.0 mi NNE 3.5 mph - N/A   Clear
10:55 PM 80.6 °F 82.5 °F 65.7 °F 60% 30.04 in 10.0 mi Calm Calm - N/A   Clear
11:15 PM 80.6 °F 82.5 °F 65.7 °F 60% 30.05 in 10.0 mi Calm Calm - N/A   Clear
11:35 PM 80.1 °F 82.1 °F 66.2 °F 62% 30.05 in 10.0 mi NNE 4.6 mph - N/A   Clear
11:55 PM 79.3 °F - 66.2 °F 64% 30.05 in 10.0 mi NNE 5.8 mph - N/A   Clear